This is the latest recevied weather packets stored in our database for station/object KB1WCR. If no packets are shown the sender has not sent any weather packets the latest 10 day(s).
| Time | Temp. | Humidity | Pressure | Rain* | Wind** | Luminosity | Snow |
|---|---|---|---|---|---|---|---|
| 1787783250 | 22.78° C | 76% | 1016.8 hPa | 0 mm | - | 36 W/m² | - |
| 1787782945 | 23.33° C | 75% | 1016.9 hPa | 0 mm | - | 39 W/m² | - |
| 1787782644 | 23.89° C | 74% | 1016.8 hPa | 0 mm | - | 47 W/m² | - |
| 1787782340 | 23.89° C | 72% | 1016.9 hPa | 0 mm | - | 55 W/m² | - |
| 1787782035 | 24.44° C | 71% | 1016.9 hPa | 0 mm | - | 74 W/m² | - |
| 1787781730 | 24.44° C | 71% | 1016.8 hPa | 0 mm | - | 54 W/m² | - |
| 1787781428 | 25° C | 70% | 1016.9 hPa | 0 mm | - | 103 W/m² | - |
| 1787781128 | 25° C | 70% | 1016.7 hPa | 0 mm | - | 59 W/m² | - |
| 1787780827 | 25° C | 69% | 1016.8 hPa | 0 mm | - | 99 W/m² | - |
| 1787780521 | 25.56° C | 68% | 1016.8 hPa | 0 mm | - | 118 W/m² | - |
| 1787780217 | 25.56° C | 68% | 1016.7 hPa | 0 mm | - | 97 W/m² | - |
| 1787779912 | 25.56° C | 69% | 1016.6 hPa | 0 mm | - | 146 W/m² | - |
| 1787779611 | 25.56° C | 69% | 1016.7 hPa | 0 mm | - | 179 W/m² | - |
| 1787779306 | 25.56° C | 67% | 1016.5 hPa | 0 mm | - | 161 W/m² | - |
| 1787779001 | 26.11° C | 67% | 1016.6 hPa | 0 mm | - | 121 W/m² | - |
| 1787778697 | 26.11° C | 67% | 1016.6 hPa | 0 mm | - | 180 W/m² | - |
| 1787778392 | 26.11° C | 66% | 1016.6 hPa | 0 mm | - | 216 W/m² | - |
| 1787778088 | 26.11° C | 67% | 1016.8 hPa | 0 mm | - | 243 W/m² | - |
| 1787777787 | 26.11° C | 66% | 1016.8 hPa | 0 mm | - | 269 W/m² | - |
| 1787777484 | 26.11° C | 67% | 1016.7 hPa | 0 mm | - | 287 W/m² | - |
| 1787777183 | 25.56° C | 66% | 1016.7 hPa | 0 mm | - | 307 W/m² | - |
| 1787776882 | 25.56° C | 67% | 1016.7 hPa | 0 mm | - | 305 W/m² | - |
| 1787776582 | 26.67° C | 65% | 1016.6 hPa | 0 mm | - | 342 W/m² | - |
| 1787776280 | 26.11° C | 67% | 1016.6 hPa | 0 mm | - | 358 W/m² | - |
| 1787775979 | 25.56° C | 67% | 1016.7 hPa | 0 mm | - | 342 W/m² | - |
* Rain latest hour (hover to see other rain measurements)
** Current wind speed in m/s (hover to see current wind gust speed)